Date,TemperatureHighF,TemperatureAvgF,TemperatureLowF,DewpointHighF,DewpointAvgF,DewpointLowF,HumidityHigh,HumidityAvg,HumidityLow,PressureMaxIn,PressureMinIn,WindSpeedMaxMPH,WindSpeedAvgMPH,GustSpeedMaxMPH,PrecipitationSumIn
2013-1-1,39.7,32.6,23.5,37.6,29.1,19.4,92,87,82,30.24,30.01,5,2,8,0.00
2013-1-2,42.2,29.7,18.6,30.1,23.4,15.5,89,78,60,30.25,30.14,4,1,7,0.00
2013-1-3,49.1,32.8,21.7,33.1,24.7,18.4,90,74,46,30.40,30.24,4,1,6,0.00
2013-1-4,53.0,35.2,20.8,30.6,24.1,17.3,89,67,38,30.40,30.26,5,1,9,0.00
2013-1-5,51.4,40.6,29.8,36.0,30.8,24.7,85,69,51,30.26,30.12,6,2,10,0.00
2013-1-6,52.5,37.2,26.7,29.7,24.4,20.1,85,62,34,30.37,30.22,4,1,6,0.00
2013-1-7,56.3,38.6,22.2,33.6,26.7,18.0,84,64,41,30.29,30.05,6,2,13,0.00
2013-1-8,60.4,44.5,30.5,45.4,35.5,24.7,91,72,46,30.14,30.00,6,2,11,0.17
2013-1-9,55.7,50.8,46.5,47.7,44.5,40.9,93,80,60,30.27,30.12,5,3,9,0.03
2013-1-10,58.6,52.9,49.8,55.3,49.4,44.1,94,88,74,30.12,29.78,5,2,8,0.22
2013-1-11,72.5,58.0,46.5,51.0,47.4,43.5,91,70,45,29.83,29.66,7,4,17,0.00
2013-1-12,62.4,41.5,27.5,52.5,30.9,22.1,86,68,36,30.07,29.74,9,3,17,0.33
2013-1-13,35.0,27.2,20.4,22.6,18.4,13.7,81,70,53,30.33,30.00,0,0,0,0.03
2013-1-14,37.5,27.4,18.8,20.1,17.2,13.4,82,66,47,30.44,30.28,4,1,7,0.00
2013-1-15,37.2,28.7,20.3,23.1,17.5,13.3,83,64,43,30.29,30.15,5,2,9,0.00
2013-1-16,51.6,33.0,17.7,24.1,19.2,13.3,84,60,32,30.18,30.07,4,1,9,0.00
2013-1-17,56.6,39.8,26.2,35.8,28.3,20.3,82,65,38,30.41,30.15,6,2,12,0.00
2013-1-18,62.2,44.4,26.2,35.5,30.4,22.2,88,61,34,30.42,30.13,8,3,14,0.00
2013-1-19,69.6,50.9,37.4,40.6,35.9,31.1,79,58,34,30.15,30.03,6,3,12,0.00
2013-1-20,66.3,45.7,30.3,44.3,32.0,18.9,84,61,42,30.25,30.07,8,2,13,0.00
2013-1-21,44.0,32.9,25.3,19.5,17.4,15.0,65,54,36,30.38,30.24,5,3,9,0.00
2013-1-22,56.4,37.4,21.3,32.2,24.1,15.3,78,60,39,30.27,30.12,5,1,11,0.00
2013-1-23,65.6,43.4,28.2,45.1,33.1,22.8,82,68,47,30.20,30.07,6,1,11,0.00
2013-1-24,46.9,40.7,36.3,38.0,25.3,21.1,71,54,46,30.23,30.06,6,4,10,0.00
2013-1-25,52.1,41.1,34.1,33.4,27.7,24.0,69,59,44,30.19,30.08,4,2,7,0.00
2013-1-26,57.5,45.5,30.3,37.2,31.6,24.8,82,60,41,30.21,30.04,6,2,13,0.00
2013-1-27,62.7,54.6,47.1,56.7,49.5,36.4,91,83,65,30.06,29.84,7,5,16,0.00
2013-1-28,76.8,69.2,58.6,64.9,62.0,55.4,90,78,64,29.90,29.73,7,5,20,0.00
2013-1-29,71.9,59.4,43.5,63.9,54.6,39.0,93,85,63,29.73,29.45,8,4,19,0.97
2013-1-30,43.5,37.9,27.5,39.3,29.2,22.8,85,71,53,30.04,29.57,10,5,18,0.03
2013-1-31,52.7,33.7,24.2,32.5,23.5,13.4,88,68,45,30.41,29.99,10,3,20,0.00